Location: Sternwarte Stuttgart
(48.7670°N, 9.1830°E)
Time: 16:47:17
(UTC+02:00)

Daily predictions for brighter satellites

Satellite Brightness Start Highest point End
(mag) Time Altitude Azimuth Time Altitude Azimuth Time Altitude Azimuth
Meteor 2-5 Rocket 3.8 19:32:55 10° N 19:38:49 76° ENE 19:44:33 10° SSE
CZ-4 R/B 3.7 19:35:23 10° SSW 19:39:07 31° W 19:42:56 10° NNW
Cosmos 1763 Rocket 3.5 19:34:07 10° S 19:39:09 62° ESE 19:44:18 10° NNE
Cosmos 2084 3.3 19:35:12 10° SSW 19:39:10 60° SE 19:42:59 10° NE
Cosmos 1758 Rocket 3.9 19:36:27 10° NNW 19:40:58 77° W 19:45:27 10° S
SJ-6B 3.5 19:39:00 10° SE 19:42:35 34° ENE 19:46:07 10° N
H-2A R/B 3.3 19:39:16 10° SE 19:42:42 36° ENE 19:46:13 10° N
Cosmos 2074 Rocket 4.3 19:38:01 10° SSE 19:43:47 43° E 19:49:35 10° NNE
Cosmos 1544 4.2 19:43:14 10° SE 19:46:05 22° E 19:48:57 10° NE
Cosmos 1953 4.2 19:46:07 10° ESE 19:47:31 12° E 19:48:54 10° ENE
Cosmos 304 Rocket 3.9 19:43:10 10° S 19:47:48 51° ESE 19:52:28 10° NNE
Cosmos 1726 Rocket 3.5 19:43:31 10° S 19:47:52 83° E 19:52:14 10° N
Cosmos 1709 Rocket 4.3 19:44:06 10° SSW 19:50:28 81° W 19:56:54 10° N
SJ 16-02 2.0 19:47:33 10° N 19:51:37 35° ENE 19:55:38 10° SE
Cosmos 1943 4.4 19:46:22 10° SW 19:51:50 46° NW 19:57:21 10° NNE
OPS 8737 4.5 19:48:22 10° SW 19:51:56 84° NW 19:55:18 10° NE
Cosmos 1378 3.5 19:48:52 10° NNW 19:52:40 71° W 19:56:25 10° S
FengYun 1-2 T 4.3 19:47:31 10° SSE 19:53:00 59° ENE 19:58:27 10° N
USA 234 4.5 19:48:41 10° SSE 19:54:47 41° SW 20:00:55 10° WNW
Cosmos 1356 Rocket 3.5 19:53:50 10° N 19:58:10 81° ENE 20:02:29 10° SSE
Cosmos 1707 3.6 19:54:25 10° NNW 19:58:17 56° W 20:02:08 10° S
SAR-Lupe-3 4.5 19:56:59 10° NNE 20:00:36 75° ESE 20:04:10 10° S
SL-27 R/B 4.0 19:59:58 10° SE 20:02:26 18° E 20:04:56 10° NE
Cosmos 389 Rocket 3.9 19:59:09 10° SSW 20:02:29 43° WNW 20:05:50 10° N
Cosmos 1674 4.0 20:00:37 10° NNE 20:03:34 21° ENE 20:06:01 12° ESE
Cosmos 2228 3.0 20:02:58 10° S 20:07:19 89° ESE 20:11:40 10° N
ALOS 2.7 20:03:08 10° S 20:07:46 66° WSW 20:12:26 10° NNW
Resurs 1-3 4.4 20:04:08 10° SE 20:08:00 31° ENE 20:11:53 10° N
Cosmos 1766 3.4 20:04:51 10° S 20:08:38 49° E 20:12:25 10° NNE
Nadezhda 3 Rocket 4.3 20:02:55 10° N 20:08:57 45° ENE 20:14:53 10° SE
BREEZE-M DEB (TANK) 0.9 20:06:39 10° W 20:09:21 89° N 20:10:34 20° E
HJ-1C 3.4 20:07:40 10° SSE 20:10:58 59° ENE 20:14:18 10° N
Cosmos 2278 4.4 20:09:56 10° NNW 20:15:12 37° NE 20:19:24 15° ESE
Spot 2 Rocket 4.0 20:10:42 10° SE 20:15:19 38° ENE 20:19:58 10° N
Thor Agena Rocket 3.5 20:12:08 10° NNE 20:17:26 81° ESE 20:22:36 10° SSW
Cosmos 2184 Rocket 4.0 20:17:11 10° S 20:23:29 79° E 20:29:54 10° NNE
Cosmos 2322 Rocket 4.3 20:22:46 10° N 20:24:30 11° NNE 20:26:13 10° NE
ATLAS 2AS CENTAUR R/B 3.4 20:17:01 10° NW 20:24:58 53° NE 20:30:49 18° ESE
Cosmos 1656 4.3 20:21:31 10° NNW 20:26:50 38° NE 20:30:19 19° ESE
Cosmos 1812 Rocket 3.7 20:24:32 10° S 20:28:51 51° E 20:33:12 10° NNE
ISS -2.5 20:27:05 10° SSW 20:29:40 22° SE 20:29:51 22° SE
GP-B 3.3 20:28:07 10° NNE 20:32:26 48° E 20:36:44 10° SSE
Cosmos 1758 3.8 20:28:50 10° SSE 20:32:33 37° E 20:36:15 10° NNE
Cosmos 1697 Rocket 3.6 20:28:03 10° NNW 20:33:07 32° NE 20:35:58 21° E
Meteor 1-24 Rocket 4.3 20:27:18 10° NNW 20:33:14 66° W 20:38:58 10° S
Cosmos 372 Rocket 4.2 20:29:01 10° NNW 20:34:18 77° WSW 20:39:32 10° SSE
Cosmos 1980 Rocket 3.6 20:30:39 10° N 20:35:07 23° NE 20:37:32 18° ENE
Resurs 01 Rocket 1.6 20:31:35 10° SSE 20:35:56 61° ENE 20:40:18 10° N
Cosmos 1125 Rocket 4.0 20:32:51 10° NNW 20:38:07 65° WSW 20:43:21 10° S
Cosmos 2058 Rocket 4.4 20:34:14 10° SSW 20:38:23 42° WNW 20:42:35 10° N
Cosmos 1805 3.1 20:35:26 10° S 20:39:17 64° E 20:43:10 10° NNE
Cosmos 2327 Rocket 4.5 20:35:14 10° S 20:41:21 85° W 20:47:29 10° N
Helios 1A 4.3 20:43:38 22° ENE 20:43:54 22° ENE 20:47:07 10° NNE
CZ-2D R/B 3.2 20:42:51 10° SSE 20:46:40 85° W 20:50:31 10° NNW
KORONAS-FOTON 4.1 20:43:44 10° N 20:47:23 44° ENE 20:48:24 35° ESE
Envisat 3.0 20:43:23 14° SSE 20:47:46 65° ENE 20:52:49 10° N
Cosmos 1939 Rocket 3.2 20:48:51 34° ESE 20:49:52 42° ENE 20:53:38 10° N
Cosmos 2084 Rocket 4.1 20:46:28 10° NNW 20:50:00 32° NE 20:50:53 29° ENE
Cosmos 1766 Rocket 4.3 20:49:27 10° N 20:53:24 32° ENE 20:53:46 32° E
Okean 3 Rocket 3.5 20:52:56 10° N 20:57:24 65° ENE 20:59:36 28° SSE
Cosmos 1470 3.3 21:00:23 38° ENE 21:00:23 38° ENE 21:03:37 10° NNE
USA 267 4.1 20:54:10 11° ENE 21:00:08 46° N 21:06:18 10° WNW
ARGOS 4.3 21:00:39 24° ENE 21:01:18 24° ENE 21:05:34 10° N
Cosmos 962 Rocket 4.5 20:56:08 10° S 21:02:24 65° E 21:08:43 10° NNE
SL-16 R/B 3.9 21:00:25 10° N 21:04:06 17° NE 21:05:41 16° NE
MOS 1-B Rocket 3.9 21:05:48 10° SSE 21:11:48 79° WSW 21:17:26 10° NNW
Cosmos 540 Rocket 4.1 21:08:11 10° SW 21:13:12 56° WNW 21:18:16 10° NNE
H-2A R/B 3.5 21:14:36 20° NE 21:14:36 20° NE 21:17:56 10° NNE
YAOGAN 6 2.8 21:16:03 54° NE 21:16:03 54° NE 21:19:13 10° N
COSMOS 2406 4.0 21:13:22 10° SW 21:18:57 53° NW 21:24:36 10° NNE
BREEZE-M DEB (TANK) 4.0 21:15:43 10° WNW 21:20:10 86° SSW 21:27:23 29° ESE
USA 186 3.5 21:21:10 23° NW 21:21:10 23° NW 21:22:23 10° NNW
Cosmos 292 Rocket 3.7 21:17:23 10° SSW 21:22:15 89° WNW 21:27:10 10° NNE
SPOT 5 4.4 21:23:55 19° NE 21:23:55 19° NE 21:26:11 10° NNE
Cosmos 1953 2.5 21:19:17 10° SSW 21:23:20 72° WNW 21:27:24 10° N
Cosmos 2369 3.8 21:20:03 10° NNW 21:25:42 74° WSW 21:28:15 34° SSE
Cosmos 1076 Rocket 3.6 21:22:25 10° NNW 21:26:48 78° W 21:27:59 47° S
Cosmos 2154 Rocket 4.4 21:22:57 10° SSW 21:29:06 64° WNW 21:35:23 10° N
SJ 16-02 3.2 21:26:20 10° NW 21:30:06 28° W 21:33:47 10° SSW
Cosmos 1833 Rocket 4.3 21:33:51 19° NE 21:33:51 19° NE 21:35:34 10° NE
BREEZE M DEB (TANK) 2.4 21:26:12 10° W 21:30:00 56° WNW 21:30:00 56° WNW
SL-14 R/B 3.8 21:27:11 10° N 21:30:14 49° NNE 21:30:14 49° NNE
Cosmos 1626 4.4 21:28:56 10° NNE 21:29:58 16° NNE 21:29:58 16° NNE
SL-27 R/B 3.9 21:33:56 10° SW 21:37:22 39° WNW 21:40:51 10° N
Cosmos 1538 Rocket 4.0 21:38:59 60° ENE 21:38:59 60° ENE 21:43:36 10° NNE
Cosmos 1674 4.4 21:35:54 10° NNW 21:39:14 31° W 21:40:57 21° SW
Meteor 1-11 4.3 21:34:16 10° N 21:40:01 58° ENE 21:40:27 57° E
FALCON 9 R/B 4.0 21:37:02 10° SW 21:38:54 17° S 21:38:54 17° S
Cosmos 2341 Rocket 4.2 21:37:47 10° SSW 21:43:58 69° WNW 21:50:13 10° N
Meteor 2-21 4.4 21:42:36 14° S 21:48:03 87° W 21:54:13 10° N
Cosmos 2360 4.3 21:45:01 10° NNW 21:50:41 59° ENE 21:50:48 59° ENE
MetOp-B 4.2 21:52:56 62° NE 21:52:56 62° NE 21:57:59 10° N
Cosmos 1959 Rocket 4.3 21:51:43 48° S 21:53:35 80° E 21:59:55 10° N
Cosmos 2082 Rocket 3.4 21:58:43 30° NE 21:58:43 30° NE 22:01:32 10° NNE
Cosmos 1408 Rocket 4.1 21:57:26 10° NNW 22:01:15 55° WNW 22:01:15 55° WNW
Cosmos 2366 rocket 3.9 22:00:34 60° S 22:01:48 83° E 22:08:06 10° N
Cosmos 2218 Rocket 3.9 22:05:58 46° SSW 22:07:57 82° W 22:14:11 10° N
Cosmos 2322 Rocket 3.2 22:05:07 10° NNW 22:09:32 35° NNE 22:09:32 35° NNE
ERS-1 Rocket 3.2 22:12:19 66° NNW 22:12:19 66° NNW 22:16:39 10° NNW
Cosmos 2285 Rocket 4.2 22:05:17 10° SSW 22:11:42 70° WNW 22:18:10 10° NNE
Resurs 01 Rocket 4.3 22:10:00 10° SW 22:12:49 17° W 22:15:39 10° NW
ATLAS 2AS CENTAUR R/B 3.4 22:08:24 10° NW 22:16:09 54° WSW 22:18:15 43° SSW
Cosmos 1697 Rocket 3.1 22:11:51 10° NW 22:17:23 54° WSW 22:17:43 53° SW
SL-08 R/B 4.5 22:16:35 66° SSW 22:17:33 82° W 22:23:50 10° N
Cosmos 2360 Rocket 3.8 22:13:20 10° N 22:17:06 22° NNE 22:17:06 22° NNE
Terra 3.8 22:20:39 19° NNE 22:20:39 19° NNE 22:22:23 10° N
Helios 1A 4.4 22:20:17 36° WNW 22:20:17 36° WNW 22:23:14 10° NNW
Cosmos 1980 Rocket 2.3 22:14:09 10° NNW 22:19:19 74° NW 22:19:19 74° NW
Cosmos 1818 3.9 22:17:53 10° NW 22:22:35 62° WNW 22:22:35 62° WNW
NOSS 3-4 (A) 3.8 22:21:41 10° NW 22:28:35 68° NE 22:28:42 68° NE
NOSS 3-4 (C) 3.8 22:21:48 10° NW 22:28:41 68° NE 22:28:48 67° NE
Cosmos 1727 Rocket 4.3 22:23:28 10° NNW 22:29:42 63° W 22:30:25 59° SW
BREEZE-M DEB (TANK) 4.4 22:23:57 10° WSW 22:27:36 28° WSW 22:27:36 28° WSW
ARGOS 3.8 22:42:10 52° NW 22:42:10 52° NW 22:46:33 10° NNW
USA 267 3.8 22:41:31 45° NE 22:42:28 48° NNE 22:48:41 10° WNW
Cosmos 2333 Rocket 4.5 22:46:04 10° N 22:48:58 14° NNE 22:49:00 14° NNE
SL-16 R/B 3.1 22:43:41 10° NNW 22:47:32 43° N 22:47:32 43° N
H-2A R/B 3.4 22:55:14 36° NNW 22:55:14 36° NNW 22:58:17 10° NNW
Cosmos 1833 Rocket 4.1 23:15:28 34° NNW 23:15:28 34° NNW 23:19:32 10° NNE
Cosmos 2219 Rocket 4.3 23:17:52 10° N 23:20:25 19° NNE 23:20:25 19° NNE
Cosmos 2082 Rocket 4.0 23:40:28 27° NW 23:40:28 27° NW 23:45:18 10° NNE
Cosmos 2322 Rocket 4.2 23:49:11 10° NW 23:51:20 23° NW 23:51:20 23° NW
